Location: *
(48.4333°N, 5.0333°W)
Time: 14:07:23
(UTC+00:00)

SJ-6B - Pass Details

Date: 20 August 2020
Orbit: 509 x 581 km, 97.6° (Epoch: 23 September)

Event Time Altitude Azimuth Distance (km) Brightness Sun altitude
Rises 20:27:34 0° 181° (S) 2,729 6.1 -10.3°
Reaches altitude 10° 20:29:47 10° 188° (S) 1,827 5.2 -10.6°
Maximum altitude 20:33:35 44° 261° (W) 761 3.9 -11.1°
Drops below altitude 10° 20:37:19 10° 335° (NNW) 1,801 6.4 -11.6°
Sets 20:39:29 0° 342° (NNW) 2,685 7.3 -11.9°
